Bartlesville, OK

12:50 PM CDT on March 26, 2017 (GMT -0500)
Bartlesville Municipal

Weather History for KBVO - November, 2012

Change the Weather History Date:

Saturday, November 10, 2012

  Actual Average Record
Temperature  
Mean Temperature 69 °F -  
Max Temperature 75 °F 61 °F 79 °F (1949)
Min Temperature 63 °F 36 °F 15 °F (1960)
Cooling Degree Days 4    
Growing Degree Days 19 (Base 50)    
Moisture  
Dew Point 56 °F    
Average Humidity 61    
Maximum Humidity 75    
Minimum Humidity 50    
Precipitation  
Precipitation 0.00 in - - ()
Sea Level Pressure  
Sea Level Pressure 29.79 in    
Wind  
Wind Speed 14 mph (South)    
Max Wind Speed 22 mph    
Max Gust Speed 34 mph    
Visibility 10 miles    
Events      
Averages and records for this station are not official NWS values.
T = Trace of Precipitation, MM = Missing Value Source: NWS Daily Summary

Daily Weather History Graph

Daily Weather History Graph

Search for Another Location

Airport or City:

Trip Planner

Search our weather history database for the weather conditions in past years. The results will help you decide how hot, cold, wet, or windy it might be!

Date:

Astronomy

Nov. 10, 2012 Rise Set
Actual Time 6:57 AM CST 5:18 PM CST
Civil Twilight 6:30 AM CST 5:45 PM CST
Nautical Twilight 5:59 AM CST 6:16 PM CST
Astronomical Twilight 5:28 AM CST 6:46 PM CST
Moon 3:08 AM CST (11/10) 3:01 PM CST (11/10)
Length of Visible Light 11h 15m
Length of Day
10h 20m
Waning Crescent, 14% of the Moon is Illuminated
Nov 10
Waning Crescent
Nov 13
New
Nov 20
First Quarter
Nov 28
Full
Dec 6
Last Quarter

Hourly Weather History & Observations

Time (CST) Temp. Dew Point Humidity Pressure Visibility Wind Dir Wind Speed Gust Speed Precip Events Conditions
12:53 AM 69.1 °F 55.9 °F 63% 29.82 in 10.0 mi South 8.1 mph - N/A   Clear
1:53 AM 70.0 °F 55.0 °F 59% 29.82 in 10.0 mi South 12.7 mph 23.0 mph N/A   Clear
2:53 AM 68.0 °F 54.0 °F 61% 29.84 in 10.0 mi South 12.7 mph 17.3 mph N/A   Clear
3:53 AM 66.9 °F 54.0 °F 63% 29.84 in 10.0 mi South 11.5 mph 17.3 mph N/A   Clear
4:53 AM 64.0 °F 54.0 °F 70% 29.85 in 10.0 mi South 6.9 mph - N/A   Clear
5:53 AM 64.0 °F 55.0 °F 73% 29.85 in 10.0 mi South 10.4 mph 18.4 mph N/A   Clear
6:53 AM 63.0 °F 55.0 °F 75% 29.86 in 10.0 mi SSE 12.7 mph - N/A   Clear
7:53 AM 64.9 °F 57.0 °F 75% 29.88 in 10.0 mi South 13.8 mph - N/A   Clear
8:53 AM 66.0 °F 57.9 °F 75% 29.88 in 10.0 mi South 13.8 mph 24.2 mph N/A   Clear
9:53 AM 71.1 °F 57.9 °F 63% 29.87 in 10.0 mi South 16.1 mph 28.8 mph N/A   Partly Cloudy
10:53 AM 73.0 °F 57.0 °F 57% 29.85 in 10.0 mi South 20.7 mph 28.8 mph N/A   Scattered Clouds
11:53 AM 73.0 °F 57.0 °F 57% 29.81 in 10.0 mi South 16.1 mph 34.5 mph N/A   Unknown
12:53 PM 73.9 °F 57.0 °F 55% 29.78 in 10.0 mi South 20.7 mph 32.2 mph N/A   Scattered Clouds
1:53 PM 75.0 °F 55.9 °F 51% 29.75 in 10.0 mi South 21.9 mph 31.1 mph N/A   Partly Cloudy
2:53 PM 75.9 °F 55.9 °F 50% 29.73 in 10.0 mi South 20.7 mph 28.8 mph N/A   Partly Cloudy
3:53 PM 75.0 °F 55.0 °F 50% 29.71 in 10.0 mi SSE 21.9 mph 29.9 mph N/A   Clear
4:53 PM 73.0 °F 55.0 °F 53% 29.73 in 10.0 mi South 13.8 mph 28.8 mph N/A   Clear
5:53 PM 73.0 °F 55.0 °F 53% 29.73 in 10.0 mi South 18.4 mph 27.6 mph N/A   Clear
6:53 PM 72.0 °F 55.0 °F 55% 29.75 in 10.0 mi South 15.0 mph 26.5 mph N/A   Clear
7:53 PM 72.0 °F 55.0 °F 55% 29.74 in 10.0 mi South 16.1 mph 28.8 mph N/A   Clear
8:53 PM 71.1 °F 55.0 °F 57% 29.72 in 10.0 mi South 20.7 mph 32.2 mph N/A   Clear
10:53 PM 70.0 °F 55.9 °F 61% 29.71 in 10.0 mi South 19.6 mph 31.1 mph N/A   Scattered Clouds
11:53 PM 69.1 °F 55.9 °F 63% 29.69 in 10.0 mi South 16.1 mph 26.5 mph N/A   Partly Cloudy